St. Joseph, KS

6:30 AM CST on November 15, 2019 (GMT -0600)
Rosecrans Memorial

Weather History for KSTJ - August, 2019

Change the Weather History Date:

Saturday, August 24, 2019

  Actual Average Record
Temperature  
Mean Temperature 71 °F 74 °F  
Max Temperature 78 °F 86 °F 106 °F (1936)
Min Temperature 64 °F 63 °F 46 °F (2015)
Degree Days  
Heating Degree Days 0 0  
Month to date heating degree days 0 0  
Since 1 June heating degree days 1 9  
Since 1 July heating degree days 0 1  
Cooling Degree Days 6 9  
Month to date cooling degree days 283 265  
Year to date cooling degree days 1104 1019  
Since 1 June cooling degree days 1003 906  
Growing Degree Days 20 (Base 50)    
Moisture  
Dew Point 62 °F    
Average Humidity 74    
Maximum Humidity 87    
Minimum Humidity 60    
Precipitation  
Precipitation 0.00 in 0.14 in 4.12 in (2007)
Month to date precipitation 5.21 2.98  
Year to date precipitation 27.29 25.30  
Sea Level Pressure  
Sea Level Pressure 30.07 in    
Wind  
Wind Speed 12 mph (ESE)    
Max Wind Speed 21 mph    
Max Gust Speed 27 mph    
Visibility 10 miles    
Events      
T = Trace of Precipitation, MM = Missing Value Source: NWS Daily Summary

Daily Weather History Graph

Daily Weather History Graph

Search for Another Location

Airport or City:

Astronomy

Aug. 24, 2019 Rise Set
Actual Time 6:39 AM CDT 8:03 PM CDT
Civil Twilight 6:11 AM CDT 8:31 PM CDT
Nautical Twilight 5:37 AM CDT 9:05 PM CDT
Astronomical Twilight 5:02 AM CDT 9:40 PM CDT
Moon 12:33 AM CDT (8/24) 3:19 PM CDT (8/24)
Length of Visible Light 14h 19m
Length of Day
13h 23m
Last Quarter, 39% of the Moon is Illuminated
Aug 24
Last Quarter
Aug 30
New
Sep 5
First Quarter
Sep 13
Full
Sep 21
Last Quarter

Hourly Weather History & Observations

Time (CDT) Temp. Dew Point Humidity Pressure Visibility Wind Dir Wind Speed Gust Speed Precip Events Conditions
12:53 AM 71.1 °F 63.0 °F 75% 30.10 in 10.0 mi East 6.9 mph - N/A   Overcast
1:53 AM 70.0 °F 63.0 °F 78% 30.09 in 10.0 mi East 11.5 mph - N/A   Partly Cloudy
2:53 AM 68.0 °F 63.0 °F 84% 30.09 in 10.0 mi East 9.2 mph - N/A   Clear
3:53 AM 66.9 °F 63.0 °F 87% 30.09 in 10.0 mi East 8.1 mph - N/A   Clear
5:53 AM 66.0 °F 60.1 °F 81% 30.09 in 10.0 mi ESE 11.5 mph - N/A   Clear
6:53 AM 64.9 °F 60.1 °F 84% 30.10 in 10.0 mi ESE 13.8 mph 20.7 mph N/A   Clear
7:53 AM 64.9 °F 60.1 °F 84% 30.11 in 10.0 mi East 10.4 mph - N/A   Clear
8:53 AM 68.0 °F 61.0 °F 78% 30.11 in 10.0 mi East 9.2 mph - N/A   Clear
9:45 AM 70.0 °F 62.1 °F 76% 30.12 in 10.0 mi ESE 6.9 mph - N/A   Overcast
9:53 AM 70.0 °F 62.1 °F 76% 30.10 in 10.0 mi East 12.7 mph 17.3 mph N/A   Overcast
10:19 AM 72.0 °F 63.0 °F 73% 30.12 in 10.0 mi ESE 11.5 mph - N/A   Mostly Cloudy
10:53 AM 73.0 °F 63.0 °F 71% 30.09 in 10.0 mi ESE 10.4 mph 19.6 mph N/A   Mostly Cloudy
11:53 AM 75.9 °F 62.1 °F 62% 30.08 in 10.0 mi ESE 18.4 mph 25.3 mph N/A   Partly Cloudy
12:53 PM 77.0 °F 62.1 °F 60% 30.06 in 10.0 mi ESE 17.3 mph 25.3 mph N/A   Partly Cloudy
1:53 PM 77.0 °F 62.1 °F 60% 30.04 in 10.0 mi SE 15.0 mph 25.3 mph N/A   Mostly Cloudy
2:53 PM 75.9 °F 62.1 °F 62% 30.04 in 10.0 mi ESE 12.7 mph - N/A   Mostly Cloudy
3:53 PM 75.0 °F 62.1 °F 64% 30.03 in 10.0 mi ESE 13.8 mph 20.7 mph N/A   Overcast
4:53 PM 75.0 °F 61.0 °F 62% 30.03 in 10.0 mi ESE 13.8 mph - N/A   Overcast
5:53 PM 75.0 °F 62.1 °F 64% 30.03 in 10.0 mi ESE 9.2 mph 17.3 mph N/A   Overcast
6:53 PM 73.0 °F 61.0 °F 66% 30.02 in 10.0 mi ESE 10.4 mph - N/A   Overcast
7:53 PM 73.0 °F 61.0 °F 66% 30.02 in 10.0 mi ESE 12.7 mph 19.6 mph N/A   Overcast
8:53 PM 72.0 °F 61.0 °F 68% 30.02 in 10.0 mi ESE 10.4 mph - N/A   Overcast
9:53 PM 71.1 °F 60.1 °F 68% 30.03 in 10.0 mi ESE 8.1 mph - N/A   Overcast
10:53 PM 71.1 °F 60.1 °F 68% 30.02 in 10.0 mi SE 11.5 mph - N/A   Overcast
11:53 PM 70.0 °F 60.1 °F 71% 30.01 in 10.0 mi ESE 10.4 mph - N/A   Overcast